Location: Eschentzwiller
(47.7125°N, 7.3981°E)
Time: 23:55:04
(UTC+00:00)

Cosmos 2082 - Pass Details

Date: 27 October 2020
Orbit: 832 x 857 km, 71.0° (Epoch: 26 November)

Event Time Altitude Azimuth Distance (km) Brightness Sun altitude
Rises 18:39:20 0° 330° (NNW) 3,437 7.4 -23.9°
Reaches altitude 10° 18:41:48 10° 328° (NNW) 2,498 6.6 -24.4°
Maximum altitude 18:47:29 66° 248° (WSW) 937 4.0 -25.3°
Enters shadow 18:50:31 28° 174° (S) 1,551 4.9 -25.8°
